,,,PA_Meas_PMT16A,,PR_Meas_QMR101_102,,RH_Meas_QMH101,,SR_Meas_QMS101,,TA_Meas_QMH101,,GenWind,,GenWind,
date,time,status,PA,status,PR,status,RH,status,SR,status,TA,status,DirAvg,status,SpdAvg,
2011-11-30, 00:00:04,VALID,1002.02,VALID,0,VALID,88.1441,VALID,0,VALID,26.7414,VALID,4,VALID,0.464844,
2011-11-30, 00:01:04,VALID,1002.03,VALID,0,VALID,88.228,VALID,0,VALID,26.7219,VALID,15,VALID,1.07539,
2011-11-30, 00:02:04,VALID,1002.03,VALID,0,VALID,88.2433,VALID,0.0815089,VALID,26.6809,VALID,1,VALID,0.846875,
2011-11-30, 00:03:04,VALID,1002.01,VALID,0,VALID,88.3043,VALID,0,VALID,26.6809,VALID,24,VALID,0.716016,
2011-11-30, 00:04:04,VALID,1001.96,VALID,0,VALID,88.4187,VALID,0,VALID,26.642,VALID,11,VALID,0.596875,
2011-11-30, 00:05:04,VALID,1001.98,VALID,0,VALID,88.5179,VALID,0,VALID,26.603,VALID,11,VALID,0.569922,
2011-11-30, 00:06:04,VALID,1001.95,VALID,0,VALID,88.5179,VALID,0.0815089,VALID,26.603,VALID,14,VALID,0.590625,
2011-11-30, 00:07:04,VALID,1001.96,VALID,0,VALID,88.5789,VALID,0,VALID,26.605,VALID,13,VALID,0.314844,
2011-11-30, 00:08:04,VALID,1001.96,VALID,0,VALID,88.6018,VALID,0,VALID,26.5835,VALID,12,VALID,0.912109,
2011-11-30, 00:09:04,VALID,1001.94,VALID,0,VALID,88.5484,VALID,0,VALID,26.603,VALID,8,VALID,0.516016,
2011-11-30, 00:10:04,VALID,1001.91,VALID,0,VALID,88.2814,VALID,0,VALID,26.644,VALID,16,VALID,0.896484,
2011-11-30, 00:11:04,VALID,1001.88,VALID,0,VALID,88.0068,VALID,0.0815089,VALID,26.6614,VALID,7,VALID,1.56641,
2011-11-30, 00:12:04,VALID,1001.91,VALID,0,VALID,87.6711,VALID,0.0815089,VALID,26.7394,VALID,11,VALID,0.633984,
2011-11-30, 00:13:04,VALID,1001.9,VALID,0,VALID,87.3354,VALID,0,VALID,26.7998,VALID,6,VALID,0.658984,
2011-11-30, 00:14:04,VALID,1001.94,VALID,0,VALID,87.3659,VALID,0,VALID,26.8193,VALID,359,VALID,0.439844,
2011-11-30, 00:15:04,VALID,1001.94,VALID,0,VALID,87.2362,VALID,0,VALID,26.7978,VALID,359,VALID,0,
2011-11-30, 00:16:04,VALID,1001.97,VALID,0,VALID,87.2362,VALID,0.0815089,VALID,26.7978,VALID,359,VALID,0.0863281,
2011-11-30, 00:17:04,VALID,1001.97,VALID,0,VALID,87.1294,VALID,0.0815089,VALID,26.8173,VALID,88,VALID,0.496484,
2011-11-30, 00:18:04,VALID,1001.95,VALID,0,VALID,87.3202,VALID,0.0815089,VALID,26.8173,VALID,42,VALID,0.3875,
2011-11-30, 00:19:04,VALID,1001.93,VALID,0,VALID,87.4041,VALID,0.0815089,VALID,26.7978,VALID,42,VALID,0.078125,
2011-11-30, 00:20:04,VALID,1001.91,VALID,0,VALID,87.7779,VALID,0.0815089,VALID,26.7589,VALID,42,VALID,0.291797,
2011-11-30, 00:21:04,VALID,1001.89,VALID,0,VALID,87.7779,VALID,0.0815089,VALID,26.7179,VALID,23,VALID,0.515625,
2011-11-30, 00:22:04,VALID,1001.87,VALID,0,VALID,87.9228,VALID,0.163018,VALID,26.7004,VALID,17,VALID,0.217969,
2011-11-30, 00:23:04,VALID,1001.83,VALID,0,VALID,88.1441,VALID,0.0815089,VALID,26.6205,VALID,17,VALID,0.207813,
2011-11-30, 00:24:04,VALID,1001.79,VALID,0,VALID,88.4264,VALID,0.0815089,VALID,26.5835,VALID,17,VALID,0.328516,
2011-11-30, 00:25:04,VALID,1001.79,VALID,0,VALID,88.6094,VALID,0.0815089,VALID,26.5251,VALID,8,VALID,0.558203,
2011-11-30, 00:26:04,VALID,1001.77,VALID,0,VALID,88.8612,VALID,0.0815089,VALID,26.4841,VALID,360,VALID,0.222266,
2011-11-30, 00:27:04,VALID,1001.78,VALID,0,VALID,88.968,VALID,0.0815089,VALID,26.4472,VALID,4,VALID,0.966797,
2011-11-30, 00:28:04,VALID,1001.78,VALID,0,VALID,89.174,VALID,0.0815089,VALID,26.4062,VALID,11,VALID,0.558984,
2011-11-30, 00:29:04,VALID,1001.76,VALID,0,VALID,89.3189,VALID,0.0815089,VALID,26.3887,VALID,5,VALID,0.733203,
2011-11-30, 00:30:04,VALID,1001.74,VALID,0,VALID,89.5402,VALID,0.0815089,VALID,26.3283,VALID,22,VALID,0,
2011-11-30, 00:31:04,VALID,1001.71,VALID,0,VALID,89.6851,VALID,0,VALID,26.2933,VALID,22,VALID,0.295312,
2011-11-30, 00:32:04,VALID,1001.7,VALID,0,VALID,89.9216,VALID,0,VALID,26.2739,VALID,346,VALID,0.938281,
2011-11-30, 00:33:04,VALID,1001.69,VALID,0,VALID,89.7996,VALID,0,VALID,26.3128,VALID,41,VALID,0.436328,
2011-11-30, 00:34:04,VALID,1001.69,VALID,0,VALID,89.2884,VALID,0,VALID,26.3907,VALID,355,VALID,1.59141,
2011-11-30, 00:35:04,VALID,1001.66,VALID,0,VALID,88.8383,VALID,0,VALID,26.4861,VALID,31,VALID,0.487891,
2011-11-30, 00:36:04,VALID,1001.68,VALID,0,VALID,88.5255,VALID,0,VALID,26.5271,VALID,354,VALID,0.749609,
2011-11-30, 00:37:04,VALID,1001.66,VALID,0,VALID,88.1746,VALID,0,VALID,26.5661,VALID,17,VALID,1.15977,
2011-11-30, 00:38:04,VALID,1001.66,VALID,0,VALID,87.9915,VALID,0,VALID,26.644,VALID,49,VALID,0.543359,
2011-11-30, 00:39:04,VALID,1001.68,VALID,0,VALID,87.6635,VALID,0,VALID,26.7045,VALID,353,VALID,0.848047,
2011-11-30, 00:40:04,VALID,1001.66,VALID,0,VALID,87.4346,VALID,0,VALID,26.7219,VALID,11,VALID,1.10312,
2011-11-30, 00:41:04,VALID,1001.69,VALID,0,VALID,87.2439,VALID,0,VALID,26.7804,VALID,2,VALID,0.913281,
2011-11-30, 00:42:04,VALID,1001.66,VALID,0,VALID,87.1905,VALID,0,VALID,26.7804,VALID,3,VALID,1.11523,
2011-11-30, 00:43:04,VALID,1001.65,VALID,0,VALID,87.1294,VALID,0,VALID,26.7998,VALID,20,VALID,0.886328,
2011-11-30, 00:44:04,VALID,1001.68,VALID,0,VALID,87.427,VALID,0,VALID,26.7609,VALID,7,VALID,0.519531,
2011-11-30, 00:45:04,VALID,1001.68,VALID,0,VALID,87.5795,VALID,0,VALID,26.7024,VALID,13,VALID,0.783984,
2011-11-30, 00:46:04,VALID,1001.66,VALID,0,VALID,87.6863,VALID,0,VALID,26.642,VALID,358,VALID,1.78789,
2011-11-30, 00:47:04,VALID,1001.6,VALID,0,VALID,87.4804,VALID,0,VALID,26.7434,VALID,7,VALID,0.578906,
2011-11-30, 00:48:04,VALID,1001.59,VALID,0,VALID,87.6177,VALID,0,VALID,26.7024,VALID,7,VALID,1.24883,
2011-11-30, 00:49:04,VALID,1001.52,VALID,0,VALID,87.6253,VALID,0,VALID,26.6225,VALID,6,VALID,1.47969,
2011-11-30, 00:50:04,VALID,1001.5,VALID,0,VALID,87.6787,VALID,0,VALID,26.642,VALID,345,VALID,1.31328,
2011-11-30, 00:51:04,VALID,1001.48,VALID,0,VALID,87.7932,VALID,0,VALID,26.644,VALID,348,VALID,1.13281,
2011-11-30, 00:52:04,VALID,1001.44,VALID,0,VALID,87.7321,VALID,0,VALID,26.6245,VALID,317,VALID,1.2332,
2011-11-30, 00:53:04,VALID,1001.43,VALID,0,VALID,87.8313,VALID,0,VALID,26.5835,VALID,22,VALID,1.27617,
2011-11-30, 00:54:04,VALID,1001.41,VALID,0,VALID,87.9152,VALID,0,VALID,26.607,VALID,5,VALID,0.925391,
2011-11-30, 00:55:04,VALID,1001.41,VALID,0,VALID,87.9228,VALID,0,VALID,26.5466,VALID,354,VALID,1.12578,
2011-11-30, 00:56:04,VALID,1001.39,VALID,0,VALID,87.9762,VALID,0,VALID,26.5271,VALID,18,VALID,0.996484,
2011-11-30, 00:57:04,VALID,1001.42,VALID,0,VALID,87.9152,VALID,0,VALID,26.5466,VALID,6,VALID,0.600391,
2011-11-30, 00:58:04,VALID,1001.39,VALID,0,VALID,87.8466,VALID,0,VALID,26.5466,VALID,8,VALID,0.561719,
2011-11-30, 00:59:04,VALID,1001.36,VALID,0,VALID,87.3278,VALID,0,VALID,26.5251,VALID,2,VALID,2.20117,
2011-11-30, 01:00:04,VALID,1001.32,VALID,0,VALID,87.015,VALID,0,VALID,26.6245,VALID,35,VALID,0.992969,
2011-11-30, 01:01:04,VALID,1001.28,VALID,0,VALID,86.4047,VALID,0.0815089,VALID,26.6205,VALID,23,VALID,1.22227,
2011-11-30, 01:02:04,VALID,1001.21,VALID,0,VALID,86.2445,VALID,0.0815089,VALID,26.6614,VALID,347,VALID,1.32891,
2011-11-30, 01:03:04,VALID,1001.21,VALID,0,VALID,86.3284,VALID,0.0815089,VALID,26.6399,VALID,11,VALID,0.782422,
2011-11-30, 01:04:04,VALID,1001.21,VALID,0,VALID,85.8936,VALID,0.0815089,VALID,26.6225,VALID,6,VALID,1.14648,
2011-11-30, 01:05:04,VALID,1001.19,VALID,0,VALID,85.9775,VALID,0.0815089,VALID,26.642,VALID,355,VALID,1.14688,
2011-11-30, 01:06:04,VALID,1001.2,VALID,0,VALID,86.0919,VALID,0.0815089,VALID,26.6614,VALID,35,VALID,0.532812,
2011-11-30, 01:07:04,VALID,1001.24,VALID,0,VALID,86.214,VALID,0.0815089,VALID,26.6225,VALID,57,VALID,0.323438,
2011-11-30, 01:08:04,VALID,1001.21,VALID,0,VALID,86.2064,VALID,0.0815089,VALID,26.603,VALID,35,VALID,0.323828,
2011-11-30, 01:09:04,VALID,1001.2,VALID,0,VALID,86.275,VALID,0.0815089,VALID,26.6225,VALID,354,VALID,1.22266,
2011-11-30, 01:10:04,VALID,1001.25,VALID,0,VALID,86.2903,VALID,0,VALID,26.603,VALID,21,VALID,0.733984,
2011-11-30, 01:11:04,VALID,1001.23,VALID,0,VALID,86.3589,VALID,0.0815089,VALID,26.603,VALID,343,VALID,1.18398,
2011-11-30, 01:12:04,VALID,1001.23,VALID,0,VALID,86.2445,VALID,0.0815089,VALID,26.603,VALID,357,VALID,0.764063,
2011-11-30, 01:13:04,VALID,1001.22,VALID,0,VALID,86.2826,VALID,0.0815089,VALID,26.5835,VALID,14,VALID,0.725,
2011-11-30, 01:14:04,VALID,1001.2,VALID,0,VALID,86.0538,VALID,0,VALID,26.6225,VALID,22,VALID,0.964453,
2011-11-30, 01:15:04,VALID,1001.23,VALID,0,VALID,85.947,VALID,0.0815089,VALID,26.642,VALID,25,VALID,0.722656,
2011-11-30, 01:16:04,VALID,1001.2,VALID,0,VALID,86.1911,VALID,0,VALID,26.603,VALID,25,VALID,0.373047,
2011-11-30, 01:17:04,VALID,1001.22,VALID,0,VALID,86.2521,VALID,0,VALID,26.605,VALID,17,VALID,0.569922,
2011-11-30, 01:18:04,VALID,1001.21,VALID,0,VALID,86.1453,VALID,0,VALID,26.605,VALID,15,VALID,0.718359,
2011-11-30, 01:19:04,VALID,1001.19,VALID,0,VALID,86.2979,VALID,0,VALID,26.605,VALID,15,VALID,0.205469,
2011-11-30, 01:20:04,VALID,1001.18,VALID,0,VALID,86.4428,VALID,0,VALID,26.5855,VALID,15,VALID,0.345313,
2011-11-30, 01:21:04,VALID,1001.17,VALID,0,VALID,86.3513,VALID,0,VALID,26.5876,VALID,14,VALID,1.11563,
2011-11-30, 01:22:04,VALID,1001.2,VALID,0,VALID,86.2445,VALID,0,VALID,26.605,VALID,22,VALID,0.394141,
2011-11-30, 01:23:04,VALID,1001.2,VALID,0,VALID,86.0843,VALID,0,VALID,26.644,VALID,19,VALID,1.20781,
2011-11-30, 01:24:04,VALID,1001.18,VALID,0,VALID,85.8554,VALID,0,VALID,26.6614,VALID,25,VALID,1.02383,
2011-11-30, 01:25:04,VALID,1001.17,VALID,0,VALID,85.7715,VALID,0,VALID,26.7434,VALID,24,VALID,0.561328,
2011-11-30, 01:26:04,VALID,1001.16,VALID,0,VALID,85.8554,VALID,0,VALID,26.7024,VALID,24,VALID,0.4,
2011-11-30, 01:27:04,VALID,1001.16,VALID,0,VALID,86.0385,VALID,0,VALID,26.7434,VALID,24,VALID,0.154297,
2011-11-30, 01:28:04,VALID,1001.17,VALID,0,VALID,86.2292,VALID,0,VALID,26.683,VALID,24,VALID,0.34375,
2011-11-30, 01:29:04,VALID,1001.12,VALID,0,VALID,86.481,VALID,0,VALID,26.642,VALID,24,VALID,0.324219,
2011-11-30, 01:30:04,VALID,1001.11,VALID,0,VALID,86.687,VALID,0,VALID,26.6245,VALID,24,VALID,0.515625,
2011-11-30, 01:31:04,VALID,1001.1,VALID,0,VALID,86.9464,VALID,0,VALID,26.607,VALID,24,VALID,0.414063,
2011-11-30, 01:32:04,VALID,1001.11,VALID,0,VALID,87.3812,VALID,0,VALID,26.5076,VALID,24,VALID,0.312891,
2011-11-30, 01:33:04,VALID,1001.1,VALID,0,VALID,87.755,VALID,0,VALID,26.4492,VALID,24,VALID,0.228906,
2011-11-30, 01:34:04,VALID,1001.09,VALID,0,VALID,88.1212,VALID,0,VALID,26.3303,VALID,24,VALID,0.313281,
2011-11-30, 01:35:04,VALID,1001.08,VALID,0,VALID,88.5789,VALID,0,VALID,26.2739,VALID,24,VALID,0.353516,
2011-11-30, 01:36:04,VALID,1001.11,VALID,0,VALID,88.9985,VALID,0,VALID,26.2933,VALID,9,VALID,0.822266,
2011-11-30, 01:37:04,VALID,1001.07,VALID,0,VALID,88.8383,VALID,0,VALID,26.2719,VALID,11,VALID,0.417969,
2011-11-30, 01:38:04,VALID,1001.04,VALID,0,VALID,88.8993,VALID,0,VALID,26.2739,VALID,11,VALID,0.451562,
2011-11-30, 01:39:04,VALID,1001.05,VALID,0,VALID,89.0595,VALID,0,VALID,26.2544,VALID,11,VALID,0.312891,
2011-11-30, 01:40:04,VALID,1001.06,VALID,0,VALID,89.2045,VALID,0,VALID,26.194,VALID,11,VALID,0.254687,
2011-11-30, 01:41:04,VALID,1001.08,VALID,0,VALID,89.3342,VALID,0,VALID,26.157,VALID,32,VALID,0.157031,
2011-11-30, 01:42:04,VALID,1001.08,VALID,0,VALID,89.7767,VALID,0,VALID,26.118,VALID,50,VALID,0.401953,
2011-11-30, 01:43:04,VALID,1001.06,VALID,0,VALID,89.9216,VALID,0,VALID,26.118,VALID,50,VALID,0.467578,
2011-11-30, 01:44:04,VALID,1001.02,VALID,0,VALID,89.8377,VALID,0,VALID,26.1375,VALID,50,VALID,0.123828,
2011-11-30, 01:45:04,VALID,1000.99,VALID,0,VALID,89.853,VALID,0,VALID,26.1355,VALID,50,VALID,0,
2011-11-30, 01:46:04,VALID,1000.94,VALID,0,VALID,89.8453,VALID,0,VALID,26.157,VALID,50,VALID,0,
2011-11-30, 01:47:04,VALID,1000.88,VALID,0,VALID,89.7843,VALID,0,VALID,26.157,VALID,49,VALID,0,
2011-11-30, 01:48:04,VALID,1000.82,VALID,0,VALID,89.6317,VALID,0,VALID,26.1959,VALID,49,VALID,0.212891,
2011-11-30, 01:49:04,VALID,1000.84,VALID,0,VALID,89.5249,VALID,0,VALID,26.2154,VALID,49,VALID,0,
2011-11-30, 01:50:04,VALID,1000.8,VALID,0,VALID,89.4715,VALID,0,VALID,26.2154,VALID,49,VALID,0.550391,
2011-11-30, 01:51:04,VALID,1000.77,VALID,0,VALID,89.4791,VALID,0,VALID,26.155,VALID,26,VALID,0.639063,
2011-11-30, 01:52:04,VALID,1000.75,VALID,0,VALID,89.6012,VALID,0,VALID,26.118,VALID,13,VALID,0.478125,
2011-11-30, 01:53:04,VALID,1000.7,VALID,0,VALID,89.9445,VALID,0,VALID,26.0187,VALID,13,VALID,0.398438,
2011-11-30, 01:54:04,VALID,1000.7,VALID,0,VALID,90.242,VALID,0,VALID,25.9817,VALID,3,VALID,0.983594,
2011-11-30, 01:55:04,VALID,1000.69,VALID,0,VALID,90.6082,VALID,0,VALID,25.9622,VALID,345,VALID,0.5875,
2011-11-30, 01:56:04,VALID,1000.64,VALID,0,VALID,90.5472,VALID,0,VALID,25.9232,VALID,5,VALID,0.742188,
2011-11-30, 01:57:04,VALID,1000.62,VALID,0,VALID,90.7379,VALID,0,VALID,25.8843,VALID,5,VALID,0.359766,
2011-11-30, 01:58:04,VALID,1000.62,VALID,0,VALID,91.0202,VALID,0,VALID,25.8453,VALID,5,VALID,0.796484,
2011-11-30, 01:59:04,VALID,1000.56,VALID,0,VALID,91.2567,VALID,0,VALID,25.8259,VALID,5,VALID,0.571875,
2011-11-30, 02:00:04,VALID,1000.54,VALID,0,VALID,91.4169,VALID,0,VALID,25.7869,VALID,4,VALID,0.55625,
2011-11-30, 02:01:04,VALID,1000.48,VALID,0,VALID,91.5923,VALID,0,VALID,25.7674,VALID,338,VALID,0.688672,
2011-11-30, 02:02:04,VALID,1000.48,VALID,0,VALID,91.8059,VALID,0,VALID,25.7869,VALID,11,VALID,1.08633,
2011-11-30, 02:03:04,VALID,1000.5,VALID,0,VALID,91.661,VALID,0,VALID,25.8064,VALID,16,VALID,0.588281,
2011-11-30, 02:04:04,VALID,1000.52,VALID,0,VALID,91.6305,VALID,0,VALID,25.8259,VALID,13,VALID,0.549219,
2011-11-30, 02:05:04,VALID,1000.54,VALID,0,VALID,91.6381,VALID,0,VALID,25.8843,VALID,13,VALID,0.744531,
2011-11-30, 02:06:04,VALID,1000.55,VALID,0,VALID,91.455,VALID,0,VALID,25.9427,VALID,1,VALID,1.05938,
2011-11-30, 02:07:04,VALID,1000.58,VALID,0,VALID,90.9439,VALID,0,VALID,26.0401,VALID,19,VALID,0.219922,
2011-11-30, 02:08:04,VALID,1000.58,VALID,0,VALID,90.5472,VALID,0,VALID,26.0791,VALID,19,VALID,0.292969,
2011-11-30, 02:09:04,VALID,1000.52,VALID,0,VALID,90.593,VALID,0,VALID,26.0771,VALID,19,VALID,0.374219,
2011-11-30, 02:10:04,VALID,1000.59,VALID,0,VALID,90.5396,VALID,0,VALID,26.159,VALID,15,VALID,0.742188,
2011-11-30, 02:11:04,VALID,1000.61,VALID,0,VALID,90.2115,VALID,0,VALID,26.2349,VALID,28,VALID,0.570313,
2011-11-30, 02:12:04,VALID,1000.62,VALID,0,VALID,89.7461,VALID,0,VALID,26.2719,VALID,28,VALID,0.454688,
2011-11-30, 02:13:04,VALID,1000.59,VALID,0,VALID,89.708,VALID,0,VALID,26.3128,VALID,56,VALID,0.617578,
2011-11-30, 02:14:04,VALID,1000.58,VALID,0,VALID,89.4639,VALID,0,VALID,26.3907,VALID,22,VALID,0.640625,
2011-11-30, 02:15:04,VALID,1000.61,VALID,0,VALID,89.0977,VALID,0,VALID,26.4687,VALID,56,VALID,0.380859,
2011-11-30, 02:16:04,VALID,1000.64,VALID,0,VALID,88.8459,VALID,0,VALID,26.5271,VALID,95,VALID,0.708594,
2011-11-30, 02:17:04,VALID,1000.62,VALID,0,VALID,88.4416,VALID,0,VALID,26.5271,VALID,154,VALID,1.47383,
2011-11-30, 02:18:04,VALID,1000.61,VALID,0,VALID,88.3577,VALID,0,VALID,26.5271,VALID,186,VALID,1.50234,
2011-11-30, 02:19:04,VALID,1000.62,VALID,0,VALID,88.2356,VALID,0,VALID,26.5076,VALID,181,VALID,1.20586,
2011-11-30, 02:20:04,VALID,1000.62,VALID,0,VALID,88.2356,VALID,0,VALID,26.4687,VALID,132,VALID,1.34844,
2011-11-30, 02:21:04,VALID,1000.6,VALID,0,VALID,88.2814,VALID,0,VALID,26.4297,VALID,140,VALID,0.809766,
2011-11-30, 02:22:04,VALID,1000.58,VALID,0,VALID,88.5332,VALID,0,VALID,26.3907,VALID,144,VALID,0.9875,
2011-11-30, 02:23:04,VALID,1000.59,VALID,0,VALID,88.8002,VALID,0,VALID,26.3303,VALID,145,VALID,0.753516,
2011-11-30, 02:24:04,VALID,1000.57,VALID,0,VALID,89.0214,VALID,0,VALID,26.3128,VALID,145,VALID,0.272656,
2011-11-30, 02:25:04,VALID,1000.54,VALID,0,VALID,89.0443,VALID,0,VALID,26.2719,VALID,145,VALID,0.187891,
2011-11-30, 02:26:04,VALID,1000.56,VALID,0,VALID,89.3571,VALID,0,VALID,26.2544,VALID,63,VALID,0.494922,
2011-11-30, 02:27:04,VALID,1000.52,VALID,0,VALID,89.6241,VALID,0,VALID,26.2349,VALID,63,VALID,0.498828,
2011-11-30, 02:28:04,VALID,1000.55,VALID,0,VALID,89.9064,VALID,0,VALID,26.1959,VALID,54,VALID,0.55,
2011-11-30, 02:29:04,VALID,1000.54,VALID,0,VALID,90.0818,VALID,0,VALID,26.1765,VALID,50,VALID,0.547266,
2011-11-30, 02:30:04,VALID,1000.55,VALID,0,VALID,90.2725,VALID,0,VALID,26.118,VALID,25,VALID,0.891016,
2011-11-30, 02:31:04,VALID,1000.54,VALID,0,VALID,90.4556,VALID,0,VALID,26.0771,VALID,25,VALID,0.337109,
2011-11-30, 02:32:04,VALID,1000.53,VALID,0,VALID,90.5777,VALID,0,VALID,26.0381,VALID,37,VALID,0.441406,
2011-11-30, 02:33:04,VALID,1000.54,VALID,0,VALID,90.5396,VALID,0,VALID,25.9992,VALID,39,VALID,0.645703,
2011-11-30, 02:34:04,VALID,1000.54,VALID,0,VALID,90.5853,VALID,0.0815089,VALID,26.0012,VALID,39,VALID,0.336719,
2011-11-30, 02:35:04,VALID,1000.56,VALID,0,VALID,90.6158,VALID,0.0815089,VALID,25.9408,VALID,19,VALID,0.791797,
2011-11-30, 02:36:04,VALID,1000.53,VALID,0,VALID,90.5853,VALID,0,VALID,25.9408,VALID,6,VALID,0.965234,
2011-11-30, 02:37:04,VALID,1000.57,VALID,0,VALID,90.6006,VALID,0.0815089,VALID,25.9213,VALID,12,VALID,1.0457,
2011-11-30, 02:38:04,VALID,1000.6,VALID,0,VALID,90.6998,VALID,0,VALID,25.9018,VALID,17,VALID,0.714453,
2011-11-30, 02:39:04,VALID,1000.6,VALID,0,VALID,90.593,VALID,0.0815089,VALID,25.9232,VALID,18,VALID,0.737891,
2011-11-30, 02:40:04,VALID,1000.62,VALID,0,VALID,90.5701,VALID,0.0815089,VALID,25.8823,VALID,26,VALID,0.655469,
2011-11-30, 02:41:04,VALID,1000.62,VALID,0,VALID,90.6692,VALID,0,VALID,25.8629,VALID,29,VALID,0.565625,
2011-11-30, 02:42:04,VALID,1000.65,VALID,0,VALID,90.7684,VALID,0.0815089,VALID,25.8434,VALID,10,VALID,0.671875,
2011-11-30, 02:43:04,VALID,1000.66,VALID,0,VALID,90.8447,VALID,0,VALID,25.8434,VALID,14,VALID,0.769531,
2011-11-30, 02:44:04,VALID,1000.67,VALID,0,VALID,90.9134,VALID,0.0815089,VALID,25.8629,VALID,2,VALID,0.628906,
2011-11-30, 02:45:04,VALID,1000.65,VALID,0,VALID,90.86,VALID,0,VALID,25.8434,VALID,10,VALID,0.850781,
2011-11-30, 02:46:04,VALID,1000.64,VALID,0,VALID,90.8676,VALID,0,VALID,25.8648,VALID,11,VALID,0.629687,
2011-11-30, 02:47:04,VALID,1000.62,VALID,0,VALID,90.921,VALID,0,VALID,25.8648,VALID,11,VALID,0.747266,
2011-11-30, 02:48:04,VALID,1000.61,VALID,0,VALID,90.9515,VALID,0,VALID,25.8648,VALID,16,VALID,0.649219,
2011-11-30, 02:49:04,VALID,1000.58,VALID,0,VALID,91.0278,VALID,0,VALID,25.8843,VALID,16,VALID,0.552734,
2011-11-30, 02:50:04,VALID,1000.56,VALID,0,VALID,91.0736,VALID,0,VALID,25.9038,VALID,16,VALID,0.494531,
2011-11-30, 02:51:04,VALID,1000.57,VALID,0,VALID,91.0125,VALID,0,VALID,25.9018,VALID,16,VALID,0.512109,
2011-11-30, 02:52:04,VALID,1000.58,VALID,0,VALID,90.921,VALID,0,VALID,25.9408,VALID,19,VALID,0.608203,
2011-11-30, 02:53:04,VALID,1000.59,VALID,0,VALID,90.8523,VALID,0,VALID,25.9817,VALID,19,VALID,0.472266,
2011-11-30, 02:54:04,VALID,1000.58,VALID,0,VALID,90.7303,VALID,0,VALID,26.0012,VALID,19,VALID,0.310937,
2011-11-30, 02:55:04,VALID,1000.59,VALID,0,VALID,90.6464,VALID,0,VALID,26.0206,VALID,19,VALID,0.0140625,
2011-11-30, 02:56:04,VALID,1000.62,VALID,0,VALID,90.6311,VALID,0,VALID,26.0401,VALID,20,VALID,0.482812,
2011-11-30, 02:57:04,VALID,1000.61,VALID,0,VALID,90.4709,VALID,0,VALID,26.0596,VALID,20,VALID,0.183984,
2011-11-30, 02:58:04,VALID,1000.64,VALID,0,VALID,90.4862,VALID,0,VALID,26.0187,VALID,20,VALID,0.109766,
2011-11-30, 02:59:04,VALID,1000.66,VALID,0,VALID,90.4099,VALID,0,VALID,26.0401,VALID,20,VALID,0,
2011-11-30, 03:00:04,VALID,1000.69,VALID,0,VALID,90.4251,VALID,0,VALID,26.0596,VALID,20,VALID,0.250781,
2011-11-30, 03:01:04,VALID,1000.71,VALID,0,VALID,90.448,VALID,0,VALID,26.0596,VALID,20,VALID,0.264062,
2011-11-30, 03:02:04,VALID,1000.67,VALID,0,VALID,90.4251,VALID,0,VALID,26.0596,VALID,20,VALID,0.133984,
2011-11-30, 03:03:04,VALID,1000.66,VALID,0,VALID,90.4251,VALID,0,VALID,26.0401,VALID,20,VALID,0,
2011-11-30, 03:04:04,VALID,1000.66,VALID,0,VALID,90.5243,VALID,0,VALID,26.0401,VALID,20,VALID,0.379297,
2011-11-30, 03:05:04,VALID,1000.64,VALID,0,VALID,90.2725,VALID,0,VALID,25.9817,VALID,20,VALID,0.699219,
2011-11-30, 03:06:04,VALID,1000.67,VALID,0,VALID,90.7379,VALID,0,VALID,25.9038,VALID,20,VALID,0.296484,
2011-11-30, 03:07:04,VALID,1000.66,VALID,0,VALID,90.9591,VALID,0,VALID,25.8473,VALID,20,VALID,0.632031,
2011-11-30, 03:08:04,VALID,1000.67,VALID,0,VALID,91.188,VALID,0,VALID,25.748,VALID,20,VALID,0.273047,
2011-11-30, 03:09:04,VALID,1000.64,VALID,0,VALID,91.4855,VALID,0,VALID,25.7285,VALID,20,VALID,0.340625,
2011-11-30, 03:10:04,VALID,1000.65,VALID,0,VALID,91.5618,VALID,0,VALID,25.67,VALID,20,VALID,0.283203,
2011-11-30, 03:11:04,VALID,1000.64,VALID,0,VALID,91.7144,VALID,0,VALID,25.6097,VALID,20,VALID,0.0375,
2011-11-30, 03:12:04,VALID,1000.6,VALID,0,VALID,91.8365,VALID,0,VALID,25.5921,VALID,20,VALID,0.372656,
2011-11-30, 03:13:04,VALID,1000.6,VALID,0,VALID,92.0119,VALID,0,VALID,25.5532,VALID,20,VALID,0.2375,
2011-11-30, 03:14:04,VALID,1000.57,VALID,0,VALID,92.1721,VALID,0,VALID,25.4948,VALID,20,VALID,0.000390625,
2011-11-30, 03:15:04,VALID,1000.59,VALID,0,VALID,92.3018,VALID,0,VALID,25.4753,VALID,20,VALID,0.121094,
2011-11-30, 03:16:04,VALID,1000.58,VALID,0,VALID,92.5536,VALID,0,VALID,25.4149,VALID,20,VALID,0,
2011-11-30, 03:17:04,VALID,1000.57,VALID,0,VALID,92.8053,VALID,0,VALID,25.4344,VALID,20,VALID,0.164453,
2011-11-30, 03:18:04,VALID,1000.55,VALID,0,VALID,92.8206,VALID,0,VALID,25.4363,VALID,20,VALID,0,
2011-11-30, 03:19:04,VALID,1000.58,VALID,0,VALID,92.935,VALID,0,VALID,25.4169,VALID,20,VALID,0.117188,
2011-11-30, 03:20:04,VALID,1000.59,VALID,0,VALID,93.0189,VALID,0.0815089,VALID,25.4344,VALID,20,VALID,0.00234375,
2011-11-30, 03:21:04,VALID,1000.57,VALID,0,VALID,93.0952,VALID,0.0815089,VALID,25.4344,VALID,20,VALID,0.117188,
2011-11-30, 03:22:04,VALID,1000.6,VALID,0,VALID,93.0876,VALID,0.0815089,VALID,25.4149,VALID,20,VALID,0,
2011-11-30, 03:23:04,VALID,1000.57,VALID,0,VALID,93.1944,VALID,0.0815089,VALID,25.4149,VALID,20,VALID,0.397656,
2011-11-30, 03:24:04,VALID,1000.58,VALID,0,VALID,93.2249,VALID,0,VALID,25.3955,VALID,20,VALID,0.351953,
2011-11-30, 03:25:04,VALID,1000.6,VALID,0,VALID,93.2631,VALID,0.0815089,VALID,25.376,VALID,20,VALID,0.134375,
2011-11-30, 03:26:04,VALID,1000.64,VALID,0,VALID,93.3394,VALID,0.0815089,VALID,25.3157,VALID,20,VALID,0.342187,
2011-11-30, 03:27:04,VALID,1000.66,VALID,0,VALID,93.4385,VALID,0.0815089,VALID,25.3157,VALID,20,VALID,0.0621094,
2011-11-30, 03:28:04,VALID,1000.65,VALID,0,VALID,93.4843,VALID,0.0815089,VALID,25.3176,VALID,20,VALID,0.00625,
2011-11-30, 03:29:04,VALID,1000.67,VALID,0,VALID,93.5377,VALID,0.0815089,VALID,25.3176,VALID,20,VALID,0.283594,
2011-11-30, 03:30:04,VALID,1000.66,VALID,0,VALID,93.5682,VALID,0.0815089,VALID,25.2981,VALID,20,VALID,0,
2011-11-30, 03:31:04,VALID,1000.72,VALID,0,VALID,93.6216,VALID,0,VALID,25.3214,VALID,20,VALID,0,
2011-11-30, 03:32:04,VALID,1000.7,VALID,0,VALID,93.6216,VALID,0,VALID,25.2806,VALID,20,VALID,0.159766,
2011-11-30, 03:33:04,VALID,1000.7,VALID,0,VALID,93.7284,VALID,0,VALID,25.2611,VALID,20,VALID,0.328516,
2011-11-30, 03:34:04,VALID,1000.73,VALID,0,VALID,93.7208,VALID,0,VALID,25.2611,VALID,20,VALID,0.369531,
2011-11-30, 03:35:04,VALID,1000.72,VALID,0,VALID,93.7055,VALID,0,VALID,25.2221,VALID,20,VALID,0.378125,
2011-11-30, 03:36:04,VALID,1000.75,VALID,0,VALID,93.8581,VALID,0,VALID,25.2416,VALID,20,VALID,0.450391,
2011-11-30, 03:37:04,VALID,1000.78,VALID,0,VALID,93.9191,VALID,0,VALID,25.2416,VALID,20,VALID,0.379297,
2011-11-30, 03:38:04,VALID,1000.8,VALID,0,VALID,93.9039,VALID,0,VALID,25.263,VALID,20,VALID,0.205859,
2011-11-30, 03:39:04,VALID,1000.81,VALID,0,VALID,93.8963,VALID,0,VALID,25.2221,VALID,20,VALID,0.273047,
2011-11-30, 03:40:04,VALID,1000.81,VALID,0,VALID,93.9115,VALID,0,VALID,25.2221,VALID,20,VALID,0.248828,
2011-11-30, 03:41:04,VALID,1000.83,VALID,0,VALID,93.9039,VALID,0,VALID,25.2027,VALID,20,VALID,0.1625,
2011-11-30, 03:42:04,VALID,1000.85,VALID,0,VALID,93.9497,VALID,0,VALID,25.2027,VALID,20,VALID,0.204688,
2011-11-30, 03:43:04,VALID,1000.85,VALID,0,VALID,94.0259,VALID,0,VALID,25.1832,VALID,20,VALID,0.334766,
2011-11-30, 03:44:04,VALID,1000.87,VALID,0,VALID,94.0488,VALID,0,VALID,25.2027,VALID,20,VALID,0.113281,